Voltar ao catálogo

TRANSAT

AtivoNavegaçãoPO
NORAD 10457·PAYLOAD·🇺🇸 United States

Lançado Oct 28, 1977 de Vandenberg Space Force Base

Loading…

Próximas Passagens (próximas 24 horas)

TLE

AtualizadoSource: Space-Track

Época: Sep 14, 2026, 09:54 UTC

1 10457U 77106A   26257.41303726  .00000045  00000-0  54430-4 0  9995
2 10457  89.6428  68.7294 0027207 116.4837 270.0790 13.48980780404607

Acompanhe TRANSAT em tempo real com AllMySat

Download on the App Store